DL4NBA-1 Weather Reports


time (UTC)temp
F
wind
direction
speed
knots
gust
knots
rain 1hr
in
rain 24hr
in
rain mn
in
humidity
%
barometer
mb
20260507001448 50 218 2.6 2.6 0.00 0.00 0.00
20260507000949 50 204 6.1 4.3 0.00 0.00 0.00
20260507000451 50 201 6.1 4.3 0.00 0.00 0.00
20260506235948 50 186 5.2 2.6 0.00 0.00 0.00
20260506235450 50 193 4.3 2.6 0.00 0.00 0.00
20260506234951 50 200 6.1 6.1 0.00 0.00 0.00
20260506234453 50 218 2.6 5.2 0.00 0.00 0.00
20260506233954 50 203 2.6 7.0 0.00 0.00 0.00
20260506233451 50 191 5.2 7.8 0.00 0.00 0.00
20260506232951 50 228 3.5 3.5 0.00 0.00 0.00
20260506231953 50 173 3.5 1.7 0.00 0.00 0.00
20260506231455 51 238 2.6 5.2 0.00 0.00 0.00
20260506230953 51 217 4.3 7.0 0.00 0.00 0.00
20260506225457 51 208 4.3 2.6 0.00 0.00 0.00
20260506224959 51 197 4.3 4.3 0.00 0.00 0.00
20260506224456 51 200 7.0 3.5 0.00 0.00 0.00
20260506223459 51 212 4.3 3.5 0.00 0.00 0.00
20260506222502 51 207 6.1 4.3 0.00 0.00 0.00
20260506221959 51 177 3.5 7.0 0.00 0.00 0.00
20260506221501 51 187 5.2 2.6 0.00 0.00 0.00
20260506221002 51 203 3.5 5.2 0.00 0.00 0.00
20260506220504 51 172 1.7 1.7 0.00 0.00 0.00
20260506215502 52 169 0.9 2.6 0.00 0.00 0.00
20260506215004 52 191 0.0 0.0 0.00 0.00 0.00
20260506214505 52 218 3.5 1.7 0.00 0.00 0.00
20260506214006 52 174 1.7 3.5 0.00 0.00 0.00
20260506213508 52 173 2.6 0.9 0.00 0.00 0.00
20260506213006 52 221 1.7 0.9 0.00 0.00 0.00
20260506210509 52 214 3.5 6.1 0.00 0.00 0.00
20260506204013 52 252 3.5 5.2 0.00 0.00 0.00
20260506203513 52 207 4.3 4.3 0.00 0.00 0.00
20260506202516 53 143 2.6 0.9 0.00 0.00 0.00
20260506202017 52 246 2.6 1.7 0.00 0.00 0.00
20260506201516 52 180 2.6 1.7 0.00 0.00 0.00
20260506201017 52 238 5.2 1.7 0.00 0.00 0.00
20260506200518 53 165 3.5 4.3 0.00 0.00 0.00
20260506200020 53 181 5.2 6.1 0.00 0.00 0.00
20260506195017 53 188 0.9 2.6 0.00 0.00 0.00
20260506194518 53 228 2.6 3.5 0.00 0.00 0.00
20260506194019 53 193 5.2 5.2 0.00 0.00 0.00
20260506193521 54 186 1.7 5.2 0.00 0.00 0.00
20260506192520 54 173 1.7 1.7 0.00 0.00 0.00
20260506191522 54 160 2.6 3.5 0.00 0.00 0.00
20260506190525 54 174 3.5 5.2 0.00 0.00 0.00
20260506185525 54 190 2.6 3.5 0.00 0.00 0.00
20260506185026 53 217 1.7 3.5 0.00 0.00 0.00
20260506183524 53 283 2.6 2.6 0.00 0.00 0.00
20260506183026 53 311 3.5 3.5 0.00 0.00 0.00
20260506182027 53 238 3.5 3.5 0.00 0.00 0.00
20260506181529 53 280 2.6 1.7 0.00 0.00 0.00
20260506181026 53 195 2.6 0.9 0.00 0.00 0.00
20260506180528 53 222 3.5 3.5 0.00 0.00 0.00
20260506180029 53 176 4.3 3.5 0.00 0.00 0.00
20260506175530 53 236 7.0 4.3 0.00 0.00 0.00
20260506175031 54 257 5.2 4.3 0.00 0.00 0.00
20260506174529 55 197 5.2 7.0 0.00 0.00 0.00
20260506174030 55 188 3.5 4.3 0.00 0.00 0.00
20260506173532 55 204 2.6 1.7 0.00 0.00 0.00
20260506173030 55 160 3.5 3.5 0.00 0.00 0.00
20260506172531 55 193 3.5 3.5 0.00 0.00 0.00
20260506172029 55 278 1.7 1.7 0.00 0.00 0.00
20260506171530 55 270 3.5 3.5 0.00 0.00 0.00
20260506171032 55 311 4.3 3.5 0.00 0.00 0.00
20260506170034 55 273 4.3 4.3 0.00 0.00 0.00
20260506164535 54 4 4.3 4.3 0.00 0.00 0.00
20260506164037 56 27 5.2 5.2 0.00 0.00 0.00
20260506163538 56 27 3.5 3.5 0.00 0.00 0.00
20260506162538 58 129 0.0 0.0 0.00 0.00 0.00
20260506161541 56 139 3.5 3.5 0.00 0.00 0.00
20260506161042 55 170 7.8 7.8 0.00 0.00 0.00
20260506160537 57 225 4.3 5.2 0.00 0.00 0.00
20260506160039 57 270 3.5 6.1 0.00 0.00 0.00
20260506155540 59 108 7.8 6.1 0.00 0.00 0.00
20260506154542 59 100 7.8 7.8 0.00 0.00 0.00
20260506153540 63 104 7.8 7.0 0.00 0.00 0.00
20260506152543 66 129 4.3 4.3 0.00 0.00 0.00
20260506151542 68 107 2.6 2.6 0.00 0.00 0.00
20260506150545 69 142 3.5 3.5 0.00 0.00 0.00
20260506150046 68 129 3.5 3.5 0.00 0.00 0.00
20260506145547 67 118 1.7 1.7 0.00 0.00 0.00
20260506144546 66 129 3.5 3.5 0.00 0.00 0.00
20260506144047 67 136 4.3 4.3 0.00 0.00 0.00
20260506143548 67 150 6.1 5.2 0.00 0.00 0.00
20260506141549 66 297 4.3 5.2 0.00 0.00 0.00
20260506140549 67 291 6.1 5.2 0.00 0.00 0.00
20260506140047 69 316 6.1 6.1 0.00 0.00 0.00
20260506135049 70 245 3.5 0.9 0.00 0.00 0.00
20260506134549 71 340 2.6 0.0 0.00 0.00 0.00
20260506133549 69 176 1.7 0.0 0.00 0.00 0.00
20260506132548 69 285 3.5 4.3 0.00 0.00 0.00
20260506132049 69 340 5.2 3.5 0.00 0.00 0.00
20260506131550 72 283 0.0 0.0 0.00 0.00 0.00
20260506131048 73 252 0.9 3.5 0.00 0.00 0.00
20260506130547 73 239 0.9 0.0 0.00 0.00 0.00
20260506130048 71 205 2.6 0.9 0.00 0.00 0.00
20260506125549 70 228 2.6 4.3 0.00 0.00 0.00
20260506125050 69 240 1.7 4.3 0.00 0.00 0.00
20260506124548 69 145 1.7 0.0 0.00 0.00 0.00
20260506123048 70 222 5.2 5.2 0.00 0.00 0.00
20260506122550 76 138 4.3 6.1 0.00 0.00 0.00
20260506122047 77 153 2.6 6.1 0.00 0.00 0.00
20260506121547 73 120 2.6 3.5 0.00 0.00 0.00
20260506121049 73 169 0.9 0.0 0.00 0.00 0.00
20260506120550 68 259 4.3 2.6 0.00 0.00 0.00
20260506120051 71 35 0.9 0.0 0.00 0.00 0.00
20260506115549 69 207 1.7 3.5 0.00 0.00 0.00
20260506114551 71 136 3.5 3.5 0.00 0.00 0.00
20260506114053 67 226 1.7 0.9 0.00 0.00 0.00
20260506113554 67 217 3.5 2.6 0.00 0.00 0.00
20260506113052 70 132 0.9 0.9 0.00 0.00 0.00
20260506112554 70 7 1.7 2.6 0.00 0.00 0.00
20260506111557 71 226 1.7 2.6 0.00 0.00 0.00
20260506111058 68 321 0.9 1.7 0.00 0.00 0.00
20260506110555 66 278 3.5 2.6 0.00 0.00 0.00
20260506105058 68 197 1.7 2.6 0.00 0.00 0.00
20260506102600 69 135 5.2 5.2 0.00 0.00 0.00
20260506102101 66 221 2.6 1.7 0.00 0.00 0.00
20260506101059 67 233 0.0 0.0 0.00 0.00 0.00
20260506095604 66 238 3.5 3.5 0.00 0.00 0.00
20260506094103 65 118 2.6 0.9 0.00 0.00 0.00
20260506093604 64 232 3.5 1.7 0.00 0.00 0.00
20260506093105 65 297 2.6 2.6 0.00 0.00 0.00
20260506091106 65 238 2.6 4.3 0.00 0.00 0.00
20260506085105 65 132 2.6 3.5 0.00 0.00 0.00
20260506084606 62 162 3.5 1.7 0.00 0.00 0.00
20260506083606 62 243 5.2 6.1 0.00 0.00 0.00
20260506082608 64 163 2.6 5.2 0.00 0.00 0.00
20260506082109 66 235 4.3 5.2 0.00 0.00 0.00
20260506081109 64 197 5.2 5.2 0.00 0.00 0.00
20260506080611 68 173 4.3 4.3 0.00 0.00 0.00
20260506080112 65 174 3.5 0.9 0.00 0.00 0.00
20260506072115 60 239 3.5 3.5 0.00 0.00 0.00
20260506071617 61 233 3.5 2.6 0.00 0.00 0.00
20260506071118 63 280 2.6 4.3 0.00 0.00 0.00
20260506070619 61 224 2.6 1.7 0.00 0.00 0.00
20260506062123 57 193 3.5 3.5 0.00 0.00 0.00
20260506061625 56 177 1.7 2.6 0.00 0.00 0.00
20260506060624 56 162 1.7 2.6 0.00 0.00 0.00
20260506060125 56 170 2.6 2.6 0.00 0.00 0.00
20260506050132 54 153 0.0 0.0 0.00 0.00 0.00
20260506045129 52 153 0.0 0.0 0.00 0.00 0.00
20260506044131 53 153 0.0 0.0 0.00 0.00 0.00
20260506043633 52 153 0.0 0.0 0.00 0.00 0.00
20260506043134 54 152 0.0 0.0 0.00 0.00 0.00
20260506042631 54 132 0.0 0.0 0.00 0.00 0.00
20260506042133 54 163 0.0 0.0 0.00 0.00 0.00
20260506040637 50 217 0.9 0.9 0.00 0.00 0.00
20260506035637 48 169 0.0 0.0 0.00 0.00 0.00
20260506035137 47 162 1.7 1.7 0.00 0.00 0.00
20260506034639 47 198 2.6 5.2 0.00 0.00 0.00
20260506034139 48 176 0.0 0.0 0.00 0.00 0.00
20260506033138 48 210 2.6 2.6 0.00 0.00 0.00
20260506032137 48 211 0.9 1.7 0.00 0.00 0.00
20260506030639 47 236 2.6 3.5 0.00 0.00 0.00
20260506030140 47 186 0.9 1.7 0.00 0.00 0.00
20260506025143 48 165 0.0 1.7 0.00 0.00 0.00
20260506024641 49 190 0.0 0.0 0.00 0.00 0.00
20260506023644 48 177 2.6 2.6 0.00 0.00 0.00
20260506022647 49 193 4.3 2.6 0.00 0.00 0.00
20260506022144 49 167 3.5 4.3 0.00 0.00 0.00
20260506021646 49 163 2.6 3.5 0.00 0.00 0.00
20260506020649 49 187 2.6 1.7 0.00 0.00 0.00
20260506020150 49 198 1.7 1.7 0.00 0.00 0.00
20260506015150 49 201 2.6 3.5 0.00 0.00 0.00
20260506014652 49 183 1.7 1.7 0.00 0.00 0.00
20260506014153 49 190 1.7 3.5 0.00 0.00 0.00
20260506013654 50 186 1.7 1.7 0.00 0.00 0.00
20260506013152 49 219 1.7 2.6 0.00 0.00 0.00
20260506012653 49 203 1.7 1.7 0.00 0.00 0.00
20260506012155 50 187 1.7 0.9 0.00 0.00 0.00
20260506011656 49 39 0.0 0.0 0.00 0.00 0.00
20260506010656 50 39 0.0 0.0 0.00 0.00 0.00
20260506010158 50 39 0.0 0.0 0.00 0.00 0.00
20260506005200 51 39 0.0 0.0 0.00 0.00 0.00
20260506004702 51 39 0.0 0.0 0.00 0.00 0.00
20260506003702 50 39 0.0 0.0 0.00 0.00 0.00
20260506002203 50 39 0.0 0.0 0.00 0.00 0.00
20260506001701 50 39 0.0 0.0 0.00 0.00 0.00